Terminal Aerodrome Forecast
Issued by NWS Mt. Holly, NJ

Home | Current Version | Previous Version | Text Only | Print | Product List | Glossary On
Versions: 1 2 3 4 5 6 7 8 9 10 11 12 13 14 15 16 17 18 19 20 21 22 23 24 25 26 27 28 29 30 31 32 33 34 35 36 37 38 39 40 41 42 43
000
FTUS41 KPHI 240700 AAA
TAFABE
TAF AMD
KABE 240756Z 2408/2506 13012G20KT 3SM -RA BR OVC009 WS020/20045KT
      TEMPO 2408/2411 2SM RA OVC005
     FM241500 19014G24KT P6SM -SHRA SCT008 OVC015
     FM241800 20016G26KT P6SM SCT020 BKN050
     FM250000 22007KT P6SM BKN250=

USA.gov is the U.S. government's official web portal to all federal, state and local government web resources and services.